Time,TemperatureF,DewpointF,PressureIn,WindDirection,WindDirectionDegrees,WindSpeedMPH,WindSpeedGustMPH,Humidity,HourlyPrecipIn,Conditions,Clouds,dailyrainin,SoftwareType,DateUTC
2013-10-23 00:14:00,52.0,-99.9,-100.00,WSW,250,2.0,-999.0,-999,-99.99,,,0.00,,2013-10-23 04:14:00,
2013-10-23 00:24:00,52.0,-99.9,-100.00,WSW,250,2.0,-999.0,-999,-99.99,,,0.00,,2013-10-23 04:24:00,
2013-10-23 00:45:00,50.0,-99.9,-100.00,WNW,287,2.0,-999.0,-999,-99.99,,,0.00,,2013-10-23 04:45:00,
2013-10-23 00:55:00,50.0,-99.9,-100.00,WNW,287,2.0,-999.0,-999,-99.99,,,0.00,,2013-10-23 04:55:00,
2013-10-23 01:04:00,50.0,-99.9,-100.00,WNW,287,2.0,-999.0,-999,-99.99,,,0.00,,2013-10-23 05:04:00,
2013-10-23 01:23:00,50.0,-99.9,-100.00,WNW,297,1.0,-999.0,-999,-99.99,,,0.00,,2013-10-23 05:23:00,
2013-10-23 01:34:00,50.0,-99.9,-100.00,WNW,297,1.0,-999.0,-999,-99.99,,,0.00,,2013-10-23 05:34:00,
2013-10-23 01:43:00,50.0,-99.9,-100.00,WNW,297,1.0,-999.0,-999,-99.99,,,0.00,,2013-10-23 05:43:00,
2013-10-23 02:30:00,49.0,-99.9,-100.00,West,259,3.0,-999.0,-999,-99.99,,,0.00,,2013-10-23 06:30:00,
2013-10-23 02:42:00,50.0,-99.9,-100.00,SSW,213,1.0,-999.0,-999,-99.99,,,0.00,,2013-10-23 06:42:00,
2013-10-23 03:22:00,49.0,-99.9,-100.00,West,259,3.0,-999.0,-999,-99.99,,,0.00,,2013-10-23 07:22:00,
2013-10-23 03:30:00,50.0,-99.9,-100.00,SSW,192,0.0,-999.0,-999,-99.99,,,0.00,,2013-10-23 07:30:00,
2013-10-23 04:00:00,50.0,-99.9,-100.00,WSW,247,1.0,-999.0,-999,-99.99,,,0.00,,2013-10-23 08:00:00,
2013-10-23 04:22:00,50.0,-99.9,-100.00,SSW,192,0.0,-999.0,-999,-99.99,,,0.00,,2013-10-23 08:22:00,
2013-10-23 04:30:00,49.0,-99.9,-100.00,SW,225,2.0,-999.0,-999,-99.99,,,0.00,,2013-10-23 08:30:00,
2013-10-23 04:53:00,50.0,-99.9,-100.00,WSW,247,1.0,-999.0,-999,-99.99,,,0.00,,2013-10-23 08:53:00,
2013-10-23 05:00:00,49.0,-99.9,-100.00,West,276,2.0,-999.0,-999,-99.99,,,0.00,,2013-10-23 09:00:00,
2013-10-23 05:22:00,49.0,-99.9,-100.00,SW,225,2.0,-999.0,-999,-99.99,,,0.00,,2013-10-23 09:22:00,
2013-10-23 05:30:00,51.0,-99.9,-100.00,WSW,257,3.0,-999.0,-999,-99.99,,,0.00,,2013-10-23 09:30:00,
2013-10-23 05:54:00,49.0,-99.9,-100.00,West,276,2.0,-999.0,-999,-99.99,,,0.00,,2013-10-23 09:54:00,
2013-10-23 06:00:00,51.0,-99.9,-100.00,WSW,241,3.0,-999.0,-999,-99.99,,,0.00,,2013-10-23 10:00:00,
2013-10-23 06:23:00,51.0,-99.9,-100.00,WSW,257,3.0,-999.0,-999,-99.99,,,0.00,,2013-10-23 10:23:00,
2013-10-23 06:53:00,51.0,-99.9,-100.00,WSW,241,3.0,-999.0,-999,-99.99,,,0.00,,2013-10-23 10:53:00,
2013-10-23 07:00:00,49.0,-99.9,-100.00,SW,232,2.0,-999.0,-999,-99.99,,,0.00,,2013-10-23 11:00:00,
2013-10-23 07:22:00,50.0,-99.9,-100.00,WSW,244,3.0,-999.0,-999,-99.99,,,0.00,,2013-10-23 11:22:00,
2013-10-23 07:30:00,48.0,-99.9,-100.00,West,269,3.0,-999.0,-999,-99.99,,,0.00,,2013-10-23 11:30:00,
2013-10-23 07:42:00,49.0,-99.9,-100.00,SW,232,2.0,-999.0,-999,-99.99,,,0.00,,2013-10-23 11:42:00,
2013-10-23 07:52:00,49.0,-99.9,-100.00,SW,232,2.0,-999.0,-999,-99.99,,,0.00,,2013-10-23 11:52:00,
2013-10-23 08:22:00,48.0,-99.9,-100.00,West,269,3.0,-999.0,-999,-99.99,,,0.00,,2013-10-23 12:22:00,
2013-10-23 08:30:00,48.0,-99.9,-100.00,WNW,288,7.0,-999.0,-999,-99.99,,,-99.99,,2013-10-23 12:30:00,
2013-10-23 08:52:00,48.0,-99.9,-100.00,West,279,7.0,-999.0,-999,-99.99,,,0.00,,2013-10-23 12:52:00,
2013-10-23 09:00:00,48.0,-99.9,-100.00,West,281,8.0,-999.0,-999,-99.99,,,0.00,,2013-10-23 13:00:00,
2013-10-23 09:12:00,48.0,-99.9,-100.00,WNW,288,7.0,-999.0,-999,-99.99,,,-99.99,,2013-10-23 13:12:00,
2013-10-23 09:22:00,48.0,-99.9,-100.00,WNW,288,7.0,-999.0,-999,-99.99,,,-99.99,,2013-10-23 13:22:00,
2013-10-23 09:30:00,48.0,-99.9,-100.00,WNW,286,10.0,-999.0,-999,-99.99,,,0.00,,2013-10-23 13:30:00,
2013-10-23 09:52:00,48.0,-99.9,-100.00,West,281,8.0,-999.0,-999,-99.99,,,0.00,,2013-10-23 13:52:00,
2013-10-23 10:00:00,48.0,-99.9,-100.00,WNW,290,6.0,-999.0,-999,-99.99,,,0.00,,2013-10-23 14:00:00,
2013-10-23 10:22:00,48.0,-99.9,-100.00,WNW,286,10.0,-999.0,-999,-99.99,,,0.00,,2013-10-23 14:22:00,
2013-10-23 10:30:00,48.0,-99.9,-100.00,WNW,288,6.0,-999.0,-999,-99.99,,,0.00,,2013-10-23 14:30:00,
2013-10-23 10:52:00,48.0,-99.9,-100.00,WNW,290,6.0,-999.0,-999,-99.99,,,0.00,,2013-10-23 14:52:00,
2013-10-23 11:00:00,48.0,-99.9,-100.00,WNW,292,7.0,-999.0,-999,-99.99,,,0.00,,2013-10-23 15:00:00,
2013-10-23 11:22:00,48.0,-99.9,-100.00,WNW,288,6.0,-999.0,-999,-99.99,,,0.00,,2013-10-23 15:22:00,
2013-10-23 11:30:00,48.0,-99.9,-100.00,WNW,295,8.0,-999.0,-999,-99.99,,,0.00,,2013-10-23 15:30:00,
2013-10-23 11:54:00,48.0,-99.9,-100.00,WNW,292,7.0,-999.0,-999,-99.99,,,0.00,,2013-10-23 15:54:00,
2013-10-23 12:00:00,48.0,-99.9,-100.00,WNW,292,12.0,-999.0,-999,-99.99,,,0.00,,2013-10-23 16:00:00,
2013-10-23 12:23:00,48.0,-99.9,-100.00,WNW,295,8.0,-999.0,-999,-99.99,,,0.00,,2013-10-23 16:23:00,
2013-10-23 12:30:00,47.0,-99.9,-100.00,WNW,296,10.0,-999.0,-999,-99.99,,,0.00,,2013-10-23 16:30:00,
2013-10-23 12:53:00,48.0,-99.9,-100.00,WNW,292,12.0,-999.0,-999,-99.99,,,0.00,,2013-10-23 16:53:00,
2013-10-23 13:00:00,47.0,-99.9,-100.00,WNW,295,11.0,-999.0,-999,-99.99,,,0.00,,2013-10-23 17:00:00,
2013-10-23 13:23:00,47.0,-99.9,-100.00,WNW,296,10.0,-999.0,-999,-99.99,,,0.00,,2013-10-23 17:23:00,
2013-10-23 13:30:00,47.0,-99.9,-100.00,NW,313,8.0,-999.0,-999,-99.99,,,-99.99,,2013-10-23 17:30:00,
2013-10-23 13:52:00,47.0,-99.9,-100.00,WNW,295,11.0,-999.0,-999,-99.99,,,0.00,,2013-10-23 17:52:00,
2013-10-23 14:22:00,47.0,-99.9,-100.00,NW,313,8.0,-999.0,-999,-99.99,,,-99.99,,2013-10-23 18:22:00,
2013-10-23 14:30:00,48.0,-99.9,-100.00,NW,322,7.0,-999.0,-999,-99.99,,,-99.99,,2013-10-23 18:30:00,
2013-10-23 15:22:00,48.0,-99.9,-100.00,NW,322,7.0,-999.0,-999,-99.99,,,-99.99,,2013-10-23 19:22:00,
2013-10-23 17:12:00,50.0,-99.9,-100.00,WNW,296,9.0,-999.0,-999,-99.99,,,-99.99,,2013-10-23 21:12:00,
2013-10-23 19:12:00,48.0,-99.9,-100.00,WNW,299,4.0,-999.0,-999,-99.99,,,-99.99,,2013-10-23 23:12:00,
2013-10-23 23:44:00,37.0,-99.9,-100.00,South,183,1.0,-999.0,-999,-99.99,,,0.00,,2013-10-24 03:44:00,